Date String (YYYY-MM-DD hh:mm:ss) UTC,Instrument flags,absolute air pressure of the measurement (hPa),sample flow rate (lpm),inlet stack bypass flow (lpm),air temperature of the measurement (°C),ambient temperature measured by the external sensor (°C),aerosol sample conditioner tube jacket temperature (°C),OPC LED temperature (°C),internal box temperature (°C),relative humidity of the measurement (%),span deviation,mass concentration of particles derived from Lorenz-Mie calculation of OPC scattering (μg/m³),mass concentration of particles derived from Lorenz-Mie calculation of OPC scattering (μg/m³),mass concentration of particles derived from Lorenz-Mie calculation of OPC scattering (μg/m³)
DateTimeUTC,F1_M11,P_M11,Q1_M11,Q2_M11,T1_M11,T2_M11,T3_M11,T4_M11,T5_M11,U1_M11,ZSPAN_M11,X2_M11,X0_M11,X1_M11
2024-05-17 19:00:00,SystemResetWarning,0821.4,5.00,000.00,023.5,021.1,000.0,032.0,024.4,015.8,0000.0,0007.83,0011.33,0007.35
2024-05-17 19:01:00,SystemResetWarning,0821.5,5.02,000.00,023.4,021.3,000.0,032.0,024.5,016.0,0000.0,0007.92,0011.46,0007.45
2024-05-17 19:02:00,SystemResetWarning,0821.4,5.01,000.00,023.4,021.7,000.0,031.9,024.8,016.9,0000.0,0008.04,0011.71,0007.55
2024-05-17 19:03:00,SystemResetWarning,0821.4,4.99,000.00,023.4,022.0,000.0,031.8,025.0,016.5,0000.0,0008.16,0012.04,0007.67
2024-05-17 19:04:00,SystemResetWarning,0821.3,5.00,000.00,023.5,022.4,000.0,031.8,025.1,016.5,0000.0,0008.29,0012.35,0007.77
2024-05-17 19:05:00,SystemResetWarning,0821.4,5.00,000.00,023.6,022.7,000.0,031.7,025.3,016.4,0000.0,0008.38,0012.18,0007.86
2024-05-17 19:06:00,SystemResetWarning,0821.8,5.00,000.00,023.6,023.0,000.0,031.7,025.5,015.7,0000.0,0008.44,0012.10,0007.95
2024-05-17 19:07:00,SystemResetWarning,0821.9,5.01,000.00,023.7,023.2,000.0,031.7,025.6,016.0,0000.0,0008.51,0012.20,0008.06
2024-05-17 19:08:00,SystemResetWarning,0821.3,5.01,000.00,023.8,023.4,000.0,031.8,025.7,015.8,0000.0,0008.60,0012.05,0008.16
2024-05-17 19:09:00,SystemResetWarning,0821.2,4.99,000.00,023.9,023.4,000.0,031.8,025.7,015.7,0000.0,0008.66,0012.10,0008.22
2024-05-17 19:10:00,SystemResetWarning,0821.3,4.98,000.00,023.8,021.9,000.0,031.9,025.0,015.3,0000.0,0008.69,0012.13,0008.24
2024-05-17 19:11:00,SystemResetWarning,0821.2,5.02,000.00,023.4,020.8,000.0,032.0,024.4,015.7,0000.0,0008.73,0012.26,0008.27
2024-05-17 19:12:00,SystemResetWarning,0821.3,5.00,000.00,023.4,021.4,000.0,031.9,024.6,015.5,0000.0,0008.73,0012.30,0008.28
2024-05-17 19:13:00,SystemResetWarning,0821.3,4.99,000.00,023.4,021.8,000.0,031.8,024.8,015.5,0000.0,0008.74,0012.28,0008.30
2024-05-17 19:14:00,SystemResetWarning,0821.3,5.01,000.00,023.5,022.1,000.0,031.8,025.0,015.0,0000.0,0008.72,0012.08,0008.29
2024-05-17 19:15:00,SystemResetWarning,0821.3,5.00,000.00,023.5,022.5,000.0,031.8,025.2,014.7,0000.0,0008.67,0011.88,0008.26
2024-05-17 19:16:00,SystemResetWarning,0821.4,5.00,000.00,023.6,022.8,000.0,031.8,025.4,014.5,0000.0,0008.63,0011.83,0008.20
2024-05-17 19:17:00,SystemResetWarning,0821.6,4.99,000.00,023.7,023.1,000.0,031.8,025.5,014.9,0000.0,0008.59,0011.98,0008.16
2024-05-17 19:18:00,SystemResetWarning,0822.0,4.99,000.00,023.8,023.3,000.0,031.8,025.6,015.4,0000.0,0008.52,0012.12,0008.09
2024-05-17 19:19:00,SystemResetWarning,0822.0,4.99,000.00,023.9,023.4,000.0,031.8,025.6,015.6,0000.0,0008.45,0012.10,0008.02
2024-05-17 19:20:00,SystemResetWarning,0821.9,5.00,000.00,023.7,022.1,000.0,031.9,024.9,016.2,0000.0,0008.41,0011.91,0007.97
2024-05-17 19:21:00,SystemResetWarning,0821.4,5.01,000.00,023.4,020.7,000.0,031.9,024.3,016.1,0000.0,0008.37,0011.93,0007.93
2024-05-17 19:22:00,SystemResetWarning,0821.4,5.01,000.00,023.3,021.2,000.0,031.9,024.5,016.1,0000.0,0008.35,0011.90,0007.90
2024-05-17 19:23:00,SystemResetWarning,0821.6,4.99,000.00,023.3,021.7,000.0,031.8,024.7,016.5,0000.0,0008.33,0011.83,0007.86
2024-05-17 19:24:00,SystemResetWarning,0821.7,5.00,000.00,023.4,022.0,000.0,031.7,025.0,016.5,0000.0,0008.29,0011.83,0007.81
2024-05-17 19:25:00,SystemResetWarning,0821.4,5.00,000.00,023.5,022.4,000.0,031.7,025.1,016.0,0000.0,0008.21,0011.62,0007.75
2024-05-17 19:26:00,SystemResetWarning,0821.5,5.00,000.00,023.5,022.7,000.0,031.7,025.3,015.4,0000.0,0008.10,0011.55,0007.65
2024-05-17 19:27:00,SystemResetWarning,0821.9,5.00,000.00,023.6,023.0,000.0,031.7,025.5,015.0,0000.0,0007.88,0011.61,0007.44
2024-05-17 19:28:00,SystemResetWarning,0822.0,5.00,000.00,023.7,023.3,000.0,031.7,025.6,014.8,0000.0,0007.68,0011.84,0007.23
2024-05-17 19:29:00,SystemResetWarning,0822.1,4.99,000.00,023.8,023.0,000.0,031.8,025.4,015.1,0000.0,0007.50,0011.38,0007.03
2024-05-17 19:30:00,SystemResetWarning,0821.7,5.00,000.00,023.6,021.5,000.0,031.9,024.6,015.3,0000.0,0007.28,0011.15,0006.80
2024-05-17 19:31:00,SystemResetWarning,0821.4,5.02,000.00,023.3,020.9,000.0,031.9,024.3,015.4,0000.0,0007.05,0011.08,0006.57
2024-05-17 19:32:00,SystemResetWarning,0821.4,5.00,000.00,023.3,021.4,000.0,031.8,024.5,015.7,0000.0,0006.87,0010.99,0006.38
2024-05-17 19:33:00,SystemResetWarning,0821.4,5.00,000.00,023.3,021.8,000.0,031.7,024.8,015.0,0000.0,0006.60,0010.69,0006.14
2024-05-17 19:34:00,SystemResetWarning,0821.9,4.99,000.00,023.4,022.1,000.0,031.7,025.0,014.6,0000.0,0006.32,0010.28,0005.89
2024-05-17 19:35:00,SystemResetWarning,0821.6,5.00,000.00,023.4,022.5,000.0,031.6,025.1,015.2,0000.0,0006.11,0010.12,0005.66
2024-05-17 19:36:00,SystemResetWarning,0821.5,5.01,000.00,023.5,022.8,000.0,031.6,025.3,014.1,0000.0,0005.95,0010.55,0005.45
2024-05-17 19:37:00,SystemResetWarning,0821.5,5.01,000.00,023.6,023.1,000.0,031.7,025.5,015.1,0000.0,0005.79,0010.59,0005.25
2024-05-17 19:38:00,SystemResetWarning,0821.5,4.98,000.00,023.7,023.3,000.0,031.7,025.5,015.7,0000.0,0005.72,0010.82,0005.18
2024-05-17 19:39:00,SystemResetWarning,0821.4,4.99,000.00,023.8,023.5,000.0,031.7,025.6,015.7,0000.0,0005.63,0009.91,0005.10
2024-05-17 19:40:00,SystemResetWarning,0821.3,5.00,000.00,023.8,022.7,000.0,031.8,025.2,015.5,0000.0,0005.52,0009.81,0005.02
2024-05-17 19:41:00,SystemResetWarning,0821.3,5.00,000.00,023.5,021.1,000.0,031.9,024.4,015.2,0000.0,0005.43,0009.75,0004.96
2024-05-17 19:42:00,SystemResetWarning,0821.3,5.01,000.00,023.3,021.2,000.0,031.9,024.5,015.3,0000.0,0005.38,0009.55,0004.92
2024-05-17 19:43:00,SystemResetWarning,0821.3,5.01,000.00,023.3,021.7,000.0,031.8,024.7,015.6,0000.0,0005.28,0009.27,0004.84
2024-05-17 19:44:00,SystemResetWarning,0821.3,5.00,000.00,023.4,022.0,000.0,031.7,024.9,016.1,0000.0,0005.17,0009.18,0004.73
2024-05-17 19:45:00,SystemResetWarning,0821.2,5.00,000.00,023.4,022.4,000.0,031.7,025.1,015.9,0000.0,0005.13,0009.18,0004.67
2024-05-17 19:46:00,SystemResetWarning,0821.3,5.00,000.00,023.5,022.7,000.0,031.7,025.3,015.6,0000.0,0005.08,0009.13,0004.63
2024-05-17 19:47:00,SystemResetWarning,0821.3,5.00,000.00,023.6,023.0,000.0,031.7,025.4,015.3,0000.0,0004.96,0009.11,0004.53
2024-05-17 19:48:00,SystemResetWarning,0821.3,5.01,000.00,023.7,023.3,000.0,031.7,025.5,015.2,0000.0,0004.84,0009.13,0004.44
2024-05-17 19:49:00,SystemResetWarning,0821.1,4.99,000.00,023.8,023.3,000.0,031.8,025.5,015.3,0000.0,0004.80,0008.69,0004.41
2024-05-17 19:50:00,SystemResetWarning,0821.1,4.99,000.00,023.6,021.8,000.0,031.8,024.8,015.4,0000.0,0004.79,0008.66,0004.39
2024-05-17 19:51:00,SystemResetWarning,0821.2,5.02,000.00,023.3,020.8,000.0,031.9,024.3,014.7,0000.0,0004.75,0008.61,0004.35
2024-05-17 19:52:00,SystemResetWarning,0821.3,5.00,000.00,023.3,021.3,000.0,031.8,024.5,014.7,0000.0,0004.66,0008.48,0004.25
2024-05-17 19:53:00,SystemResetWarning,0821.2,4.99,000.00,023.3,021.7,000.0,031.7,024.8,015.4,0000.0,0004.56,0008.40,0004.12
2024-05-17 19:54:00,SystemResetWarning,0821.2,5.00,000.00,023.3,022.0,000.0,031.7,024.9,014.8,0000.0,0004.43,0008.26,0003.98
2024-05-17 19:55:00,SystemResetWarning,0821.2,5.02,000.00,023.4,022.4,000.0,031.6,025.1,015.6,0000.0,0004.33,0008.21,0003.88
2024-05-17 19:56:00,SystemResetWarning,0821.2,4.99,000.00,023.5,022.8,000.0,031.6,025.3,015.4,0000.0,0004.29,0008.21,0003.82
2024-05-17 19:57:00,SystemResetWarning,0821.3,4.99,000.00,023.6,023.0,000.0,031.6,025.4,015.1,0000.0,0004.18,0008.15,0003.70
2024-05-17 19:58:00,SystemResetWarning,0821.2,5.00,000.00,023.7,023.3,000.0,031.7,025.5,016.0,0000.0,0004.10,0007.95,0003.62
2024-05-17 19:59:00,SystemResetWarning,0821.2,4.99,000.00,023.7,022.8,000.0,031.7,025.3,015.6,0000.0,0004.09,0007.22,0003.59
